Brigham City, UT

10:45 AM MDT on September 18, 2019 (GMT -0600)
Brigham City

Weather History for KBMC - August, 2019

Change the Weather History Date:

Wednesday, August 21, 2019

  Actual Average (WUND) Record (WUND)
Temperature  
Mean Temperature 74 °F -  
Max Temperature 94 °F - - (-1)
Min Temperature 54 °F - - (-1)
Cooling Degree Days 9    
Growing Degree Days 24 (Base 50)    
Moisture  
Dew Point 32 °F    
Average Humidity 28    
Maximum Humidity 57    
Minimum Humidity 4    
Precipitation  
Precipitation 0.00 in - - ()
Sea Level Pressure  
Sea Level Pressure 29.99 in    
Wind  
Wind Speed 2 mph ()    
Max Wind Speed 6 mph    
Max Gust Speed -    
Visibility 10.0 miles    
Events      
Averages and records for this station are not official NWS values.
T = Trace of Precipitation, MM = Missing Value Source: Averaged Metar Reports

Daily Weather History Graph

Daily Weather History Graph

Search for Another Location

Airport or City:

Astronomy

Aug. 21, 2019 Rise Set
Actual Time 6:43 AM MDT 8:19 PM MDT
Civil Twilight 6:13 AM MDT 8:48 PM MDT
Nautical Twilight 5:38 AM MDT 9:23 PM MDT
Astronomical Twilight 5:00 AM MDT 10:01 PM MDT
Moon 11:34 PM MDT (8/21) 12:26 PM MDT (8/21)
Length of Visible Light 14h 34m
Length of Day
13h 36m
Waning Gibbous, 68% of the Moon is Illuminated
Aug 21
Waning Gibbous
Aug 23
Last Quarter
Aug 30
New
Sep 5
First Quarter
Sep 13
Full

Hourly Weather History & Observations

Time (MDT) Temp. Dew Point Humidity Pressure Visibility Wind Dir Wind Speed Gust Speed Precip Events Conditions
12:10 AM 64.6 °F 44.2 °F 48% 30.02 in 10.0 mi Calm Calm - N/A   Clear
12:30 AM 65.5 °F 44.6 °F 47% 30.03 in 10.0 mi Calm Calm - N/A   Clear
12:50 AM 65.5 °F 44.4 °F 46% 30.03 in 10.0 mi Calm Calm - N/A   Clear
1:10 AM 65.3 °F 44.4 °F 47% 30.03 in 10.0 mi Calm Calm - N/A   Clear
1:30 AM 64.9 °F 44.1 °F 47% 30.03 in 10.0 mi WNW 3.5 mph - N/A   Clear
1:50 AM 62.6 °F 39.9 °F 43% 30.03 in 10.0 mi NNW 4.6 mph - N/A   Clear
2:10 AM 61.9 °F 40.8 °F 46% 30.03 in 10.0 mi Calm Calm - N/A   Clear
2:30 AM 58.3 °F 43.0 °F 57% 30.04 in 10.0 mi NW 4.6 mph - N/A   Clear
2:50 AM 60.4 °F 37.6 °F 43% 30.03 in 10.0 mi Calm Calm - N/A   Clear
3:10 AM 60.4 °F 39.4 °F 46% 30.03 in 10.0 mi SSE 4.6 mph - N/A   Clear
3:30 AM 58.5 °F 41.2 °F 53% 30.04 in 10.0 mi NNW 5.8 mph - N/A   Clear
3:50 AM 61.0 °F 36.5 °F 40% 30.03 in 10.0 mi NNW 4.6 mph - N/A   Clear
4:10 AM 60.3 °F 35.1 °F 39% 30.03 in 10.0 mi Calm Calm - N/A   Clear
4:30 AM 57.9 °F 38.8 °F 49% 30.03 in 10.0 mi Calm Calm - N/A   Clear
4:50 AM 58.3 °F 36.0 °F 43% 30.03 in 10.0 mi Calm Calm - N/A   Clear
5:10 AM 59.0 °F 33.8 °F 39% 30.04 in 10.0 mi Calm Calm - N/A   Clear
5:30 AM 59.4 °F 32.7 °F 37% 30.04 in 10.0 mi Calm Calm - N/A   Clear
5:50 AM 58.1 °F 34.9 °F 42% 30.04 in 10.0 mi WNW 3.5 mph - N/A   Clear
6:10 AM 57.9 °F 35.1 °F 42% 30.05 in 10.0 mi NW 4.6 mph - N/A   Clear
6:30 AM 56.3 °F 36.3 °F 47% 30.05 in 10.0 mi ESE 4.6 mph - N/A   Clear
6:50 AM 54.0 °F 38.3 °F 55% 30.06 in 10.0 mi Calm Calm - N/A   Clear
7:10 AM 55.2 °F 38.5 °F 53% 30.06 in 10.0 mi Calm Calm - N/A   Clear
7:30 AM 56.3 °F 38.3 °F 51% 30.06 in 10.0 mi Calm Calm - N/A   Clear
7:50 AM 56.8 °F 39.0 °F 51% 30.07 in 10.0 mi NNW 3.5 mph - N/A   Clear
8:10 AM 57.7 °F 39.0 °F 50% 30.08 in 10.0 mi Calm Calm - N/A   Clear
8:30 AM 60.3 °F 39.4 °F 46% 30.08 in 10.0 mi Calm Calm - N/A   Clear
8:50 AM 62.8 °F 38.3 °F 40% 30.08 in 10.0 mi Calm Calm - N/A   Clear
9:10 AM 65.7 °F 38.8 °F 37% 30.07 in 10.0 mi Calm Calm - N/A   Clear
9:30 AM 68.5 °F 36.5 °F 31% 30.07 in 10.0 mi Calm Calm - N/A   Clear
9:50 AM 71.1 °F 33.8 °F 25% 30.07 in 10.0 mi Calm Calm - N/A   Clear
10:10 AM 73.8 °F 30.2 °F 20% 30.07 in 10.0 mi Calm Calm - N/A   Clear
10:30 AM 76.1 °F 28.6 °F 17% 30.07 in 10.0 mi North 3.5 mph - N/A   Clear
10:50 AM 77.7 °F 27.3 °F 16% 30.07 in 10.0 mi North 3.5 mph - N/A   Clear
11:10 AM 79.9 °F 31.3 °F 17% 30.07 in 10.0 mi Calm Calm - N/A   Clear
11:30 AM 81.7 °F 27.7 °F 14% 30.07 in 10.0 mi Calm Calm - N/A   Clear
11:50 AM 83.5 °F 24.6 °F 12% 30.06 in 10.0 mi Calm Calm - N/A   Clear
12:10 PM 85.3 °F 24.8 °F 11% 30.06 in 10.0 mi Calm Calm - N/A   Clear
12:30 PM 86.7 °F 25.0 °F 11% 30.05 in 10.0 mi Calm Calm - N/A   Clear
12:50 PM 88.0 °F 24.4 °F 10% 30.04 in 10.0 mi West 3.5 mph - N/A   Clear
1:10 PM 89.2 °F 24.6 °F 10% 30.03 in 10.0 mi West 3.5 mph - N/A   Clear
1:30 PM 89.8 °F 24.4 °F 9% 30.02 in 10.0 mi West 3.5 mph - N/A   Clear
1:50 PM 90.7 °F 25.3 °F 9% 30.01 in 10.0 mi WSW 4.6 mph - N/A   Clear
2:10 PM 91.9 °F 25.2 °F 9% 30.01 in 10.0 mi South 4.6 mph - N/A   Clear
2:30 PM 92.3 °F 22.3 °F 8% 30.00 in 10.0 mi SSW 3.5 mph - N/A   Clear
2:50 PM 92.7 °F 19.4 °F 7% 30.00 in 10.0 mi SSW 5.8 mph - N/A   Clear
3:10 PM 93.4 °F 16.3 °F 6% 29.98 in 10.0 mi South 5.8 mph - N/A   Clear
3:30 PM 93.6 °F 11.8 °F 5% 29.97 in 10.0 mi SW 3.5 mph - N/A   Clear
3:50 PM 93.7 °F 9.9 °F 4% 29.97 in 10.0 mi West 5.8 mph - N/A   Clear
4:10 PM 93.7 °F 11.7 °F 5% 29.95 in 10.0 mi WNW 3.5 mph - N/A   Clear
4:30 PM 93.6 °F 12.9 °F 5% 29.94 in 10.0 mi West 4.6 mph - N/A   Clear
4:50 PM 94.1 °F 15.4 °F 6% 29.94 in 10.0 mi West 3.5 mph - N/A   Clear
5:10 PM 93.9 °F 18.3 °F 6% 29.93 in 10.0 mi SW 3.5 mph - N/A   Clear
5:30 PM 93.6 °F 19.6 °F 7% 29.93 in 10.0 mi Calm Calm - N/A   Clear
5:50 PM 93.0 °F 17.4 °F 6% 29.92 in 10.0 mi Calm Calm - N/A   Clear
6:10 PM 92.5 °F 17.4 °F 6% 29.91 in 10.0 mi NW 3.5 mph - N/A   Clear
6:30 PM 92.5 °F 16.0 °F 6% 29.91 in 10.0 mi Calm Calm - N/A   Clear
6:50 PM 92.5 °F 13.1 °F 5% 29.90 in 10.0 mi Calm Calm - N/A   Clear
7:10 PM 91.6 °F 21.0 °F 8% 29.89 in 10.0 mi Calm Calm - N/A   Clear
7:30 PM 89.4 °F 35.6 °F 15% 29.89 in 10.0 mi SSE 3.5 mph - N/A   Clear
7:50 PM 86.9 °F 42.8 °F 21% 29.89 in 10.0 mi Calm Calm - N/A   Clear
8:10 PM 85.6 °F 40.6 °F 20% 29.89 in 10.0 mi Calm Calm - N/A   Clear
8:30 PM 83.8 °F 43.2 °F 24% 29.89 in 10.0 mi Calm Calm - N/A   Clear
8:50 PM 78.3 °F 47.7 °F 34% 29.89 in 10.0 mi SE 4.6 mph - N/A   Clear
9:10 PM 77.5 °F 42.8 °F 29% 29.88 in 10.0 mi ESE 5.8 mph - N/A   Clear
9:30 PM 75.6 °F 40.8 °F 29% 29.88 in 10.0 mi Calm Calm - N/A   Clear
9:50 PM 75.0 °F 39.4 °F 28% 29.88 in 10.0 mi Calm Calm - N/A   Clear
10:10 PM 76.1 °F 40.5 °F 28% 29.88 in 10.0 mi Calm Calm - N/A   Clear
10:30 PM 74.8 °F 44.4 °F 34% 29.87 in 10.0 mi Calm Calm - N/A   Clear
10:50 PM 73.2 °F 43.5 °F 34% 29.86 in 10.0 mi Calm Calm - N/A   Clear
11:15 PM 72.3 °F 37.0 °F 28% 29.86 in 10.0 mi NNW 3.5 mph - N/A   Clear
11:30 PM 71.8 °F 40.6 °F 32% 29.86 in 10.0 mi Calm Calm - N/A   Clear
11:50 PM 70.2 °F 40.3 °F 34% 29.86 in 10.0 mi Calm Calm - N/A   Clear